TimePST,TemperatureF,Dew PointF,Humidity,Sea Level PressureIn,VisibilityMPH,Wind Direction,Wind SpeedMPH,Gust SpeedMPH,PrecipitationIn,Events,Conditions,WindDirDegrees,DateUTC
12:52 AM,53.1,28.9,40,30.04,10.0,North,4.6,-,N/A,,Scattered Clouds,360,2013-01-22 08:52:00
1:52 AM,53.1,35.1,50,30.05,10.0,North,3.5,-,N/A,,Scattered Clouds,350,2013-01-22 09:52:00
2:52 AM,51.1,35.1,54,30.05,10.0,Calm,Calm,-,N/A,,Mostly Cloudy,0,2013-01-22 10:52:00
3:52 AM,50.0,30.9,48,30.04,10.0,Calm,Calm,-,N/A,,Mostly Cloudy,0,2013-01-22 11:52:00
4:52 AM,51.1,34.0,52,30.04,10.0,NNE,3.5,-,N/A,,Mostly Cloudy,20,2013-01-22 12:52:00
5:52 AM,46.9,33.1,59,30.05,10.0,Calm,Calm,-,N/A,,Mostly Cloudy,0,2013-01-22 13:52:00
6:52 AM,48.0,34.0,58,30.06,10.0,Calm,Calm,-,N/A,,Mostly Cloudy,0,2013-01-22 14:52:00
7:52 AM,53.1,34.0,48,30.06,10.0,ENE,3.5,-,N/A,,Mostly Cloudy,60,2013-01-22 15:52:00
8:52 AM,61.0,28.0,29,30.08,10.0,Calm,Calm,-,N/A,,Scattered Clouds,0,2013-01-22 16:52:00
9:52 AM,68.0,21.0,17,30.08,10.0,NW,3.5,-,N/A,,Scattered Clouds,320,2013-01-22 17:52:00
10:52 AM,78.1,12.0,8,30.06,10.0,NNE,4.6,-,N/A,,Scattered Clouds,20,2013-01-22 18:52:00
11:52 AM,80.1,9.0,7,30.01,10.0,NNW,3.5,-,N/A,,Scattered Clouds,330,2013-01-22 19:52:00
12:52 PM,82.9,10.0,6,30.00,10.0,SW,3.5,-,N/A,,Scattered Clouds,230,2013-01-22 20:52:00
1:52 PM,81.0,10.0,7,30.00,10.0,WNW,9.2,-,N/A,,Mostly Cloudy,300,2013-01-22 21:52:00
2:52 PM,79.0,10.9,8,30.01,10.0,North,5.8,-,N/A,,Mostly Cloudy,350,2013-01-22 22:52:00
3:52 PM,75.0,15.1,10,30.02,10.0,North,5.8,-,N/A,,Mostly Cloudy,360,2013-01-22 23:52:00
4:52 PM,66.0,42.1,42,30.03,8.0,Calm,Calm,-,N/A,,Mostly Cloudy,0,2013-01-23 00:52:00
5:52 PM,59.0,48.9,69,30.04,9.0,South,3.5,-,N/A,,Mostly Cloudy,180,2013-01-23 01:52:00
6:52 PM,57.9,46.9,67,30.04,10.0,Calm,Calm,-,N/A,,Mostly Cloudy,0,2013-01-23 02:52:00
7:52 PM,60.1,46.9,62,30.05,10.0,WNW,3.5,-,N/A,,Mostly Cloudy,290,2013-01-23 03:52:00
8:52 PM,60.1,42.1,51,30.04,10.0,Calm,Calm,-,N/A,,Mostly Cloudy,0,2013-01-23 04:52:00
9:52 PM,59.0,39.9,49,30.06,9.0,Calm,Calm,-,N/A,,Partly Cloudy,0,2013-01-23 05:52:00
10:52 PM,57.9,41.0,53,30.05,10.0,Calm,Calm,-,N/A,,Mostly Cloudy,0,2013-01-23 06:52:00
11:52 PM,61.0,37.0,41,30.04,10.0,NE,3.5,-,N/A,,Overcast,50,2013-01-23 07:52:00